Weather reports worldwide

Advertisment
Bedford, United Kingdom (3560): temperature & dewpoint: 10.09.2019 04:00:00 - 16.09.2019 04:00:00 (BST)Bedford, United Kingdom (3560): temperature -20cm & temperature -100cm: 10.09.2019 04:00:00 - 16.09.2019 04:00:00 (BST)Bedford, United Kingdom (3560): wind speed & gusts: 10.09.2019 04:00:00 - 16.09.2019 04:00:00 (BST)Bedford, United Kingdom (3560): wind direction: 10.09.2019 04:00:00 - 16.09.2019 04:00:00 (BST)Bedford, United Kingdom (3560): reduced air pressure: 10.09.2019 04:00:00 - 16.09.2019 04:00:00 (BST)Bedford, United Kingdom (3560): visibility: 10.09.2019 04:00:00 - 16.09.2019 04:00:00 (BST)Bedford, United Kingdom (3560): precipitation: 10.09.2019 04:00:00 - 16.09.2019 04:00:00 (BST)
Date & Time tt [°C] td [°C] tt -20cm [°C] tt -100cm [°C] ff [km/h] ff [kn] fx [km/h] fx [kn] dd ppp [hPa] vv [km] rr [mm]
16.09.2019 04:00:00 15,5 13,2 - - 4 2 - - W 1021,2 40 -
16.09.2019 03:00:00 15,6 13,0 - - 4 2 - - W 1021,7 35 0,0
16.09.2019 02:00:00 15,6 13,0 - - 2 1 - - ENE 1022,0 40 0,0
16.09.2019 01:00:00 16,2 12,0 - - 2 1 - - NNE 1022,3 50 0,0
16.09.2019 00:00:00 16,1 12,1 - - 4 2 - - NNE 1022,5 50 0,0
15.09.2019 23:00:00 16,2 11,7 - - 8 4 - - NE 1022,5 35 0,0
15.09.2019 22:00:00 17,3 13,2 - - 8 4 - - ENE 1022,6 40 0,0
15.09.2019 21:00:00 18,7 14,1 - - 11 6 - - N 1022,8 50 0,0
15.09.2019 20:00:00 19,7 14,1 - - 8 4 - - NNW 1022,6 50 0,0
15.09.2019 19:00:00 20,8 13,7 - - 11 6 - - W 1022,4 50 0,0
15.09.2019 18:00:00 21,9 13,5 - - 16 9 - - W 1022,4 50 0,0
15.09.2019 17:00:00 22,6 13,4 - - 15 8 - - W 1022,4 50 0,0
15.09.2019 16:00:00 23,4 13,5 - - 16 9 - - W 1022,7 35 0,0
15.09.2019 15:00:00 22,8 13,5 - - 15 8 - - WNW 1023,2 50 0,0
15.09.2019 14:00:00 22,6 13,3 - - 16 9 - - W 1023,6 40 0,0
15.09.2019 13:00:00 22,2 13,2 - - 16 9 - - W 1024,1 50 0,0
15.09.2019 12:00:00 21,2 13,1 - - 13 7 - - W 1024,4 45 0,0
15.09.2019 11:00:00 19,8 12,5 - - 16 9 - - W 1024,8 45 0,0
15.09.2019 10:00:00 17,5 10,2 15,2 14,9 11 6 - - WSW 1024,6 50 0,0
15.09.2019 09:00:00 14,0 8,5 - - 16 9 - - WSW 1024,5 40 0,0
15.09.2019 08:00:00 11,3 7,9 - - 13 7 - - WSW 1024,4 45 0,0
15.09.2019 07:00:00 9,8 7,3 - - 16 9 - - WSW 1024,6 50 0,0
15.09.2019 06:00:00 9,5 6,8 - - 13 7 - - W 1024,7 50 0,0
15.09.2019 05:00:00 10,0 6,6 - - 13 7 - - WSW 1024,6 50 0,0
15.09.2019 04:00:00 10,3 6,1 - - 11 6 - - WSW 1024,9 50 0,0
15.09.2019 03:00:00 9,8 6,0 - - 11 6 - - WSW 1025,6 50 0,0
15.09.2019 02:00:00 11,2 6,4 - - 11 6 - - WSW 1025,9 50 0,0
15.09.2019 01:00:00 12,0 5,8 - - 9 5 - - SW 1026,4 50 0,0
15.09.2019 00:00:00 13,4 5,5 - - 11 6 - - SW 1026,7 50 0,0
14.09.2019 23:00:00 13,8 4,8 - - 8 4 - - WSW 1027,1 50 0,0
14.09.2019 22:00:00 14,9 4,8 - - 8 4 - - WSW 1027,7 50 0,0
14.09.2019 21:00:00 16,4 4,0 - - 9 5 - - WSW 1028,0 50 0,0
14.09.2019 20:00:00 17,8 3,2 - - 8 4 - - WSW 1028,2 50 0,0
14.09.2019 19:00:00 20,0 3,3 - - 8 4 - - WSW 1028,1 50 0,0
14.09.2019 18:00:00 20,9 3,7 - - 11 6 - - WSW 1028,4 50 0,0
14.09.2019 17:00:00 21,3 2,7 - - 9 5 - - WSW 1028,7 50 0,0
14.09.2019 16:00:00 22,1 3,7 - - 9 5 - - SW 1029,5 40 0,0
14.09.2019 15:00:00 21,2 4,1 - - 9 5 - - S 1030,7 45 0,0
14.09.2019 14:00:00 21,0 4,5 - - 11 6 - - SSW 1031,6 50 0,0
14.09.2019 13:00:00 20,0 5,9 - - 8 4 - - SSE 1032,5 30 0,0
14.09.2019 12:00:00 18,9 6,8 - - 8 4 - - SSE 1033,6 35 0,0
14.09.2019 11:00:00 16,8 7,1 - - 8 4 - - S 1034,1 30 0,0
14.09.2019 10:00:00 15,0 9,3 15,2 14,9 5 3 - - SSW 1034,6 35 0,0
14.09.2019 09:00:00 11,8 9,5 - - 4 2 - - S 1034,7 30 0,0
14.09.2019 08:00:00 7,4 7,3 - - 2 1 - - SW 1035,2 15 0,0
14.09.2019 07:00:00 6,4 5,8 - - 4 2 - - SE 1035,3 2,1 0,0
14.09.2019 06:00:00 7,9 7,0 - - 4 2 - - N 1035,3 40 0,0
14.09.2019 05:00:00 8,5 7,1 - - 4 2 - - NNW 1035,6 45 0,0
14.09.2019 04:00:00 8,8 6,9 - - 4 2 - - NW 1035,9 45 0,0
14.09.2019 03:00:00 9,0 7,3 - - 2 1 - - NW 1036,3 45 0,0
14.09.2019 02:00:00 9,3 8,3 - - 4 2 - - SSW 1036,6 35 0,0
14.09.2019 01:00:00 9,3 6,8 - - 2 1 - - WSW 1036,8 50 0,0
14.09.2019 00:00:00 9,9 6,2 - - 9 5 - - SSE 1036,6 45 0,0
13.09.2019 23:00:00 10,5 3,6 - - 9 5 - - ESE 1036,7 45 0,0
13.09.2019 22:00:00 11,8 4,8 - - 8 4 - - ENE 1036,9 50 0,0
13.09.2019 21:00:00 13,4 4,8 - - 9 5 - - E 1036,2 50 0,0
13.09.2019 20:00:00 14,6 4,2 - - 5 3 - - ENE 1036,0 50 0,0
13.09.2019 19:00:00 16,6 4,2 - - 8 4 - - NE 1035,5 45 0,0
13.09.2019 18:00:00 18,5 4,1 - - 11 6 - - NNE 1035,5 50 0,0
13.09.2019 17:00:00 18,9 3,9 - - 13 7 - - NNE 1035,5 40 0,0
13.09.2019 16:00:00 19,0 3,0 - - 13 7 - - N 1035,5 40 0,0
13.09.2019 15:00:00 19,1 4,1 - - 13 7 - - NNE 1035,4 40 0,0
13.09.2019 14:00:00 18,2 4,1 - - 15 8 - - N 1035,5 35 0,0
13.09.2019 13:00:00 17,6 5,4 - - 16 9 - - N 1035,8 45 0,0
13.09.2019 12:00:00 17,1 6,0 - - 13 7 - - N 1036,0 30 0,0
13.09.2019 11:00:00 15,8 6,2 - - 15 8 - - N 1035,8 40 0,0
13.09.2019 10:00:00 14,7 7,2 15,7 14,9 18 10 - - N 1035,6 30 0,0
13.09.2019 09:00:00 13,1 8,6 - - 16 9 - - NNW 1035,0 40 0,0
13.09.2019 08:00:00 10,9 8,8 - - 13 7 - - NW 1034,2 45 0,0
13.09.2019 07:00:00 9,6 8,1 - - 13 7 - - WNW 1033,6 45 0,0
13.09.2019 06:00:00 10,5 8,7 - - 11 6 - - WNW 1033,0 45 0,0
13.09.2019 05:00:00 11,7 9,5 - - 16 9 - - NW 1032,2 40 0,0
13.09.2019 04:00:00 12,8 10,5 - - 13 7 - - WNW 1031,7 45 0,0
13.09.2019 03:00:00 14,4 11,5 - - 16 9 - - NW 1030,6 45 0,0
13.09.2019 02:00:00 15,8 12,4 - - 21 11 - - NW 1029,9 50 0,0
13.09.2019 01:00:00 16,7 14,8 - - 16 9 - - NW 1029,0 50 0,0
13.09.2019 00:00:00 17,8 14,9 - - 11 6 - - WSW 1028,3 50 0,0
12.09.2019 23:00:00 18,0 14,6 - - 13 7 - - WSW 1028,0 50 0,0
12.09.2019 22:00:00 18,4 13,8 - - 18 10 - - WSW 1027,4 50 0,0
12.09.2019 21:00:00 19,1 12,7 - - 21 11 - - WSW 1026,9 45 0,0
12.09.2019 20:00:00 20,0 11,7 - - 21 11 - - WSW 1026,4 50 0,0
12.09.2019 19:00:00 20,8 10,8 - - 26 14 48 26 WSW 1025,8 50 0,0
12.09.2019 18:00:00 22,1 10,4 - - 22 12 - - WSW 1025,3 45 0,0
12.09.2019 17:00:00 23,5 14,3 - - 21 11 - - WSW 1025,0 50 0,0
12.09.2019 16:00:00 22,6 15,0 - - 22 12 - - SW 1025,1 45 0,0
12.09.2019 15:00:00 22,3 14,4 - - 28 15 46 25 WSW 1025,4 50 0,0
12.09.2019 14:00:00 22,8 14,9 - - 28 15 48 26 WSW 1025,2 50 0,0
12.09.2019 13:00:00 22,3 15,3 - - 24 13 - - WSW 1025,6 45 0,0
12.09.2019 12:00:00 20,4 15,0 - - 22 12 - - WSW 1026,3 50 0,0
12.09.2019 11:00:00 19,0 14,7 - - 21 11 - - WSW 1026,5 45 0,0
12.09.2019 10:00:00 18,1 14,2 15,2 15,0 21 11 - - WSW 1026,1 29 0,0
12.09.2019 09:00:00 14,9 13,1 - - 16 9 - - WSW 1025,8 17 0,0
12.09.2019 08:00:00 13,2 12,7 - - 9 5 - - WSW 1025,6 10 0,0
12.09.2019 07:00:00 11,6 11,4 - - 9 5 - - SW 1025,3 9 0,0
12.09.2019 06:00:00 11,5 11,2 - - 8 4 - - SW 1024,7 5 0,0
12.09.2019 05:00:00 12,1 11,3 - - 11 6 - - SW 1024,6 26 0,0
12.09.2019 04:00:00 12,5 10,2 - - 9 5 - - SW 1024,6 45 0,0
12.09.2019 03:00:00 13,3 10,3 - - 8 4 - - WSW 1024,2 50 0,0
12.09.2019 02:00:00 13,0 10,6 - - 9 5 - - WSW 1023,9 50 0,0
12.09.2019 01:00:00 13,3 10,3 - - 8 4 - - WSW 1023,4 50 0,0
12.09.2019 00:00:00 14,3 10,2 - - 8 4 - - WSW 1023,0 50 0,0
11.09.2019 23:00:00 14,4 10,4 - - 8 4 - - WSW 1022,8 50 0,0
11.09.2019 22:00:00 14,6 9,6 - - 2 1 - - NW 1022,2 50 0,0
11.09.2019 21:00:00 16,6 10,3 - - 8 4 - - W 1021,7 50 0,0
11.09.2019 20:00:00 18,4 10,6 - - 15 8 - - W 1020,6 50 0,0
11.09.2019 19:00:00 20,3 11,3 - - 22 12 - - WNW 1019,6 45 0,0
11.09.2019 18:00:00 22,4 12,5 - - 26 14 - - WNW 1018,6 50 0,0
11.09.2019 17:00:00 24,1 12,3 - - 22 12 46 25 W 1018,0 50 0,0
11.09.2019 16:00:00 24,0 13,5 - - 24 13 52 28 W 1017,5 45 0,0
11.09.2019 15:00:00 22,5 15,8 - - 22 12 - - WSW 1017,2 50 0,0
11.09.2019 14:00:00 20,3 15,6 - - 18 10 - - WSW 1017,5 22 0,0
11.09.2019 13:00:00 20,8 16,1 - - 26 14 48 26 WSW 1017,2 40 0,0
11.09.2019 12:00:00 19,5 14,7 - - 26 14 46 25 WSW 1016,8 50 0,0
11.09.2019 11:00:00 19,0 14,3 - - 28 15 48 26 WSW 1016,7 40 0,0
11.09.2019 10:00:00 17,1 13,9 14,9 15,0 24 13 - - SW 1016,6 50 0,0
11.09.2019 09:00:00 15,5 12,9 - - 24 13 - - SW 1016,5 50 0,0
11.09.2019 08:00:00 14,3 12,1 - - 21 11 - - SW 1016,5 50 0,0
11.09.2019 07:00:00 13,5 11,4 - - 24 13 - - SW 1016,2 50 0,0
11.09.2019 06:00:00 13,3 10,7 - - 21 11 - - SW 1016,6 16 0,0
11.09.2019 05:00:00 13,0 9,7 - - 21 11 - - SSW 1017,1 45 0,0
11.09.2019 04:00:00 13,1 9,0 - - 16 9 - - SW 1018,0 45 0,0
11.09.2019 03:00:00 13,4 7,9 - - 16 9 - - SW 1018,2 50 0,0
11.09.2019 02:00:00 13,6 9,8 - - 16 9 - - SW 1018,8 50 0,0
11.09.2019 01:00:00 13,7 9,9 - - 13 7 - - SW 1019,1 45 0,0
11.09.2019 00:00:00 13,6 10,1 - - 9 5 - - SW 1019,4 50 0,0
10.09.2019 23:00:00 13,4 9,7 - - 8 4 - - SW 1019,5 50 0,0
10.09.2019 22:00:00 13,0 8,9 - - 8 4 - - SSW 1019,6 50 0,0
10.09.2019 21:00:00 13,6 9,0 - - 8 4 - - SW 1019,6 50 0,0
10.09.2019 20:00:00 14,7 8,9 - - 5 3 - - SW 1019,7 50 0,0
10.09.2019 19:00:00 16,4 9,2 - - 8 4 - - W 1019,5 50 0,0
10.09.2019 18:00:00 16,9 8,9 - - 15 8 - - WNW 1019,6 50 0,0
10.09.2019 17:00:00 17,3 9,3 - - 13 7 - - WNW 1019,3 50 0,0
10.09.2019 16:00:00 17,4 9,7 - - 18 10 - - NW 1019,8 45 0,0
10.09.2019 15:00:00 17,3 9,9 - - 13 7 - - WNW 1019,5 50 0,0
10.09.2019 14:00:00 17,3 9,7 - - 15 8 - - NW 1019,2 50 0,0
10.09.2019 13:00:00 17,5 9,9 - - 13 7 - - W 1019,1 35 0,0
10.09.2019 12:00:00 15,9 11,7 - - 8 4 - - WNW 1019,6 11 0,0
10.09.2019 11:00:00 13,3 11,6 - - 13 7 - - NW 1019,8 5 0,0
10.09.2019 10:00:00 12,4 11,3 14,7 15,2 5 3 - - W 1019,1 8 0,0
10.09.2019 09:00:00 11,1 10,8 - - 4 2 - - WSW 1018,6 5 0,0
10.09.2019 08:00:00 9,9 9,7 - - 8 4 - - W 1018,3 7 0,0
10.09.2019 07:00:00 8,6 8,4 - - 5 3 - - WSW 1017,5 3,3 0,0
10.09.2019 06:00:00 9,3 9,0 - - 8 4 - - W 1016,9 4,2 0,0
10.09.2019 05:00:00 9,6 9,4 - - 9 5 - - WNW 1016,5 3,9 0,0
10.09.2019 04:00:00 10,6 10,1 - - 5 3 - - S 1015,7 5 0,0

tt = temperature
td = dewpoint
tt -20cm = temperature -20cm
tt -100cm = temperature -100cm
ff = wind speed
fx = gusts
dd = wind direction
ppp = reduced air pressure
vv = visibility
rr = precipitation

Next stations